Theta_e
336 335 332 331 331 329 325 327 328 327 323 323 322 321 321 320 319 315 311 308 306 306 305 304 303 303 305 306 305 303 303 303 303 304 305 305 305 304 306 311 314 316 319 323 326 328 330 328 327 327 327 327 326 325 325 324 325 325 326 324 324 322 322 322 321 320 321 320 320 320 322 323 324 323 324 324 325 325 326 325 326 327 329 330 330
334 333 331 331 331 330 328 329 329 327 325 322 321 321 319 318 317 314 311 309 308 306 305 306 304 303 303 304 304 302 301 302 303 303 304 305 305 305 304 306 309 314 317 319 323 328 330 329 328 327 327 327 326 326 325 324 325 326 324 323 322 322 322 320 321 321 320 320 320 320 320 321 322 322 322 323 323 323 323 324 324 325 326 328 328
333 331 330 331 329 328 325 322 324 326 326 324 320 319 318 318 317 314 314 311 310 305 305 307 305 303 301 303 303 301 301 301 301 302 303 305 305 305 306 302 305 309 314 317 320 323 327 329 331 332 333 332 327 327 326 324 324 326 327 325 322 324 322 320 320 322 320 319 319 319 320 320 321 320 321 321 321 321 321 321 322 322 323 324 325
327 327 327 326 327 325 323 321 322 324 324 322 317 316 317 316 315 315 313 311 307 304 303 307 306 303 301 302 301 301 301 300 301 301 302 304 304 305 305 305 302 306 310 313 317 319 322 324 327 329 331 331 329 327 327 325 324 324 325 323 324 326 323 323 322 319 319 320 319 319 319 319 320 320 320 319 319 320 319 320 320 321 321 322 322
324 324 321 327 326 326 324 321 321 321 321 318 315 314 313 313 311 310 309 309 307 305 303 303 306 304 301 301 300 302 300 300 301 300 301 303 304 304 305 305 306 304 305 308 312 314 317 320 322 324 328 329 330 331 331 331 332 332 324 325 326 326 324 323 321 320 319 319 319 320 319 320 320 320 320 320 319 319 318 318 319 320 320 321 321
323 322 322 322 321 321 321 319 318 318 317 315 315 315 315 314 310 311 309 311 312 310 307 309 307 302 302 300 300 300 299 300 300 300 300 301 301 302 304 305 305 307 307 305 306 309 313 316 318 321 322 324 326 328 329 330 330 331 331 328 326 326 326 324 321 320 320 320 319 319 319 319 319 319 320 319 319 318 318 318 318 320 320 320 320
321 322 320 320 319 317 316 316 315 316 316 315 314 313 314 313 310 311 308 309 308 306 305 306 305 306 304 300 300 299 299 299 299 299 299 300 300 301 302 303 304 306 306 307 304 303 307 312 315 317 319 320 322 324 326 328 329 330 330 331 331 327 326 326 326 324 319 319 319 319 319 319 319 320 319 318 318 318 318 317 317 318 319 319 319
317 319 317 317 316 315 314 313 314 314 313 312 312 311 311 310 307 309 309 308 306 305 302 303 303 303 301 300 299 298 299 299 299 299 298 298 299 300 301 302 303 304 304 307 306 305 303 307 311 314 315 316 318 320 323 326 328 329 329 330 330 330 327 327 326 325 319 319 319 319 319 319 319 319 319 318 319 318 317 317 317 317 318 317 318
313 314 313 313 313 312 312 312 313 313 312 311 310 309 309 308 306 305 307 307 305 303 304 302 302 300 299 299 299 298 299 299 298 298 298 299 299 299 300 301 302 301 305 305 305 305 303 303 307 308 308 310 315 318 320 323 325 327 327 327 328 328 328 329 327 320 319 319 318 319 319 319 319 319 318 318 318 318 317 317 317 316 317 317 317
309 310 310 310 310 310 310 311 312 312 310 309 308 308 308 309 306 303 304 306 303 301 301 299 298 299 299 299 299 298 299 298 298 298 298 299 299 299 300 300 300 301 302 303 303 303 304 303 302 303 303 307 312 315 317 318 319 321 323 325 326 326 327 328 322 320 320 319 319 319 320 319 318 318 318 317 317 317 318 317 316 316 315 315 316
305 306 305 306 307 307 308 309 311 310 308 308 308 306 306 307 307 303 300 300 302 300 300 299 299 299 299 299 297 298 298 297 297 298 298 298 298 298 299 299 299 299 300 300 301 302 302 303 303 305 306 303 308 311 313 315 315 317 320 322 323 325 326 327 328 324 321 320 320 320 319 318 318 318 318 317 316 316 317 316 316 315 315 315 315
300 302 303 303 303 303 305 307 308 308 307 306 305 305 305 306 304 305 303 301 300 300 299 297 297 298 299 300 299 298 298 297 297 297 297 297 297 297 297 298 297 298 297 298 299 300 300 300 300 302 303 303 303 305 307 309 310 313 316 318 321 322 324 324 326 328 322 321 321 321 320 319 318 318 318 317 317 317 317 316 316 315 315 315 316
298 299 300 300 300 301 301 302 304 303 303 302 303 302 303 304 303 301 303 303 300 298 298 297 298 302 300 301 300 299 296 297 296 296 296 297 296 296 297 296 297 297 297 297 297 297 297 298 299 300 301 302 302 301 303 304 305 308 311 313 316 319 321 323 324 326 326 323 322 321 320 319 319 318 318 317 316 316 316 316 316 316 315 315 315
295 296 296 297 297 297 298 298 299 300 299 299 299 299 300 300 302 302 300 299 297 297 298 300 300 296 296 297 298 299 299 295 296 296 297 297 296 295 295 296 297 297 296 296 297 296 297 297 298 298 299 300 300 301 302 302 302 303 307 309 312 313 316 319 321 323 324 325 323 321 321 320 320 319 316 315 316 316 316 316 317 316 316 316 315
293 293 294 294 295 295 295 296 296 297 297 296 297 297 297 298 299 299 300 300 298 298 297 297 296 296 296 295 296 296 301 299 296 297 298 297 294 295 296 296 296 296 295 296 297 297 297 296 297 297 297 298 298 299 299 298 299 298 301 304 307 311 312 314 317 320 323 323 323 322 322 321 320 318 316 316 316 316 316 316 316 317 316 316 315
290 291 292 292 292 293 293 293 294 295 295 295 295 294 295 296 297 297 299 298 298 297 297 296 295 296 296 294 294 291 295 295 293 296 296 294 294 295 295 296 295 295 295 296 297 296 296 296 296 296 296 296 296 296 297 298 297 295 295 298 300 305 309 312 313 315 318 322 323 323 322 322 321 320 318 317 317 317 317 316 315 315 315 316 314
288 288 289 289 290 291 291 291 292 292 293 293 293 293 294 295 295 296 295 296 296 296 297 297 297 296 293 293 293 294 293 292 291 296 293 297 298 297 296 295 296 295 295 296 296 296 295 295 296 296 296 296 296 296 296 297 297 297 296 294 296 300 304 308 311 312 314 317 321 323 323 323 322 322 319 318 318 317 316 315 315 315 315 314 314
286 287 287 287 287 288 289 289 289 290 291 291 292 292 292 292 293 294 294 295 295 294 294 297 296 296 296 294 293 290 288 290 291 291 296 297 296 294 296 296 295 294 294 294 295 296 295 295 296 296 296 296 296 296 296 296 295 296 297 298 297 299 302 305 308 310 312 313 316 321 323 324 324 322 319 319 319 318 316 316 316 315 315 314 315
285 286 286 286 286 286 287 287 287 287 288 289 289 290 291 291 292 292 292 293 294 293 292 293 296 295 295 296 295 294 292 290 288 289 289 292 295 295 296 297 294 295 296 296 296 295 296 295 295 296 296 296 295 295 295 296 295 295 296 297 300 300 302 303 305 307 310 310 312 314 319 322 322 323 321 320 320 319 317 317 316 316 315 315 314
285 285 285 285 286 285 285 286 286 286 286 286 287 288 289 289 290 291 291 291 292 291 291 292 291 292 294 293 294 294 294 293 293 289 288 286 290 295 294 295 295 295 295 295 295 296 295 296 296 296 295 296 295 295 295 295 295 296 295 296 299 301 303 304 305 305 306 308 310 311 313 316 320 322 322 321 321 321 321 318 317 317 316 315 314
284 284 284 284 284 284 284 284 284 284 285 285 285 286 286 286 287 287 288 288 289 291 290 289 290 290 291 291 292 292 293 293 292 292 288 288 289 290 290 293 294 294 295 295 295 295 294 295 295 294 295 295 296 295 295 295 295 295 295 296 299 302 303 305 305 305 306 307 308 309 311 312 313 317 320 321 321 320 320 318 318 317 316 315 315
283 283 283 284 283 284 284 283 283 283 284 284 284 284 285 285 285 286 286 286 287 288 288 288 289 289 290 290 290 290 291 291 291 290 290 290 287 287 289 288 287 291 293 294 295 295 295 295 295 295 295 295 295 295 295 294 294 295 295 295 297 300 302 303 303 304 304 305 306 307 309 310 311 312 314 318 320 321 320 320 319 318 317 316 315
283 282 283 283 283 283 282 282 283 283 283 283 282 283 283 284 284 285 284 284 284 285 286 286 287 287 287 288 288 288 288 287 288 289 288 287 287 287 288 289 288 287 291 293 293 293 294 294 294 294 295 295 295 295 294 294 293 293 293 294 296 298 299 300 301 302 303 303 304 305 307 308 309 310 311 312 315 318 320 321 320 320 318 317 315
282 282 282 282 282 282 282 282 282 282 281 282 282 282 282 283 283 283 283 283 284 284 284 284 285 285 286 286 286 287 287 287 288 288 288 287 287 286 286 288 288 289 291 291 292 292 293 293 294 294 295 295 294 294 294 294 293 292 292 293 294 296 298 300 302 303 303 304 304 305 306 306 306 308 309 311 311 313 315 318 320 320 319 318 316
281 281 281 282 281 281 281 281 281 281 281 281 281 282 282 282 282 282 282 282 282 282 283 283 283 283 283 284 285 285 285 287 287 287 287 287 286 284 286 287 284 286 288 289 288 291 292 293 294 294 294 294 295 294 294 294 293 292 292 292 293 295 296 298 299 300 301 301 302 303 305 306 306 307 308 309 311 311 312 314 318 320 320 319 318
280 280 281 281 281 281 280 280 280 281 281 281 281 281 281 281 281 281 281 281 281 282 282 282 282 282 283 283 283 283 283 285 285 286 285 285 284 284 284 285 285 284 287 287 288 287 289 291 292 292 292 292 293 294 293 293 293 292 291 291 293 293 294 296 297 298 299 300 301 302 302 302 304 305 307 309 310 311 312 312 314 318 320 320 320
280 280 281 281 281 281 281 280 280 280 281 281 281 281 281 280 281 280 280 281 280 281 281 281 281 281 282 282 282 282 282 283 284 284 285 284 284 284 283 281 282 284 283 285 285 286 286 290 293 293 293 293 293 293 293 293 292 291 290 293 293 292 293 294 296 298 299 300 301 301 302 302 302 303 304 306 309 310 311 312 312 313 317 320 319
281 281 280 281 280 280 280 280 280 280 280 280 280 280 280 280 280 280 279 281 280 280 280 280 280 280 281 281 281 281 282 282 283 283 283 283 283 284 283 282 280 278 282 281 283 283 287 287 291 293 294 294 293 293 291 290 292 291 290 293 293 293 293 294 296 298 299 299 300 300 301 301 302 303 303 303 304 306 308 309 309 311 314 315 315
281 281 280 280 280 280 279 279 280 280 279 279 279 279 280 279 279 279 279 280 279 279 279 279 279 280 280 280 280 280 280 281 281 282 282 282 283 283 283 282 282 280 278 279 280 281 284 289 284 290 292 292 292 292 291 291 291 291 293 293 293 293 293 294 296 298 298 299 300 300 301 301 301 302 303 303 303 304 306 307 307 309 312 313 315
280 280 280 279 279 279 279 279 279 279 279 279 279 279 279 279 279 279 279 279 279 279 279 279 279 279 279 279 279 279 280 280 280 281 281 281 281 282 282 282 283 280 280 278 278 283 282 285 286 286 291 291 291 291 291 290 291 291 292 292 292 293 293 294 295 296 297 299 299 299 300 300 301 301 302 303 303 304 304 306 307 308 310 313 314
280 279 279 279 279 278 278 278 278 278 278 278 278 278 278 278 278 278 278 278 278 278 278 278 278 278 278 278 278 278 279 279 279 280 280 280 281 281 281 282 281 281 280 279 277 281 284 282 285 288 287 287 288 288 289 290 290 290 291 291 292 291 290 292 292 293 295 296 296 297 299 300 300 300 301 302 303 304 304 304 305 307 309 312 314
279 279 279 278 278 278 278 278 278 278 278 278 278 278 278 277 277 277 277 277 277 277 277 278 278 278 277 277 277 277 278 278 278 279 279 279 280 280 280 280 280 281 281 279 278 278 283 283 283 284 286 286 287 286 287 288 289 288 291 291 291 289 290 291 291 292 293 294 296 297 298 299 299 300 300 300 301 303 304 305 305 305 307 310 312
279 279 278 278 278 278 277 277 277 277 277 277 277 277 277 276 277 277 277 277 276 276 277 276 277 277 277 276 277 277 278 277 278 278 278 278 279 279 279 279 279 280 280 279 277 277 280 283 283 283 285 285 284 286 285 286 287 288 288 290 290 290 290 290 290 290 291 293 294 295 296 297 298 299 299 299 300 301 302 304 305 305 306 308 310
278 278 278 278 278 277 277 276 276 276 276 276 276 276 276 276 276 276 276 276 276 275 276 275 276 276 276 276 276 277 277 277 277 277 278 278 278 278 278 278 278 278 280 278 277 277 276 280 281 283 283 284 282 285 284 284 285 286 286 287 288 289 289 289 289 290 290 291 293 294 295 296 297 298 299 299 300 300 302 303 303 304 305 305 307
278 277 277 277 276 276 275 275 275 275 275 275 275 275 275 275 275 275 275 275 275 275 275 275 275 276 276 276 276 276 277 276 277 277 277 277 277 277 277 278 277 278 278 279 277 276 276 277 280 280 281 282 282 282 284 284 285 285 285 285 286 287 288 288 289 290 290 291 293 294 295 296 297 297 298 298 299 299 300 301 302 303 305 305 306
276 276 276 275 275 275 274 274 274 274 274 274 274 274 274 274 274 274 274 274 274 274 274 275 275 275 275 275 275 276 276 275 275 276 276 277 276 276 276 277 277 277 278 278 278 277 277 276 278 279 280 280 281 282 283 284 283 283 284 284 286 286 286 287 288 289 290 291 292 293 294 295 295 296 297 297 298 299 299 300 301 302 303 303 303
275 274 274 274 273 273 273 273 273 273 273 273 273 273 273 274 273 273 273 274 274 274 274 275 275 275 274 274 274 275 275 274 274 275 275 275 275 276 275 276 276 277 277 277 277 278 276 276 276 279 280 280 281 281 282 281 282 283 283 283 284 284 285 286 287 288 289 290 291 291 292 293 294 295 296 296 297 298 298 299 299 301 301 302 302
273 273 272 272 272 272 272 272 272 272 272 272 272 272 272 272 272 273 273 274 274 274 274 274 274 274 274 274 274 274 274 273 273 274 274 274 274 274 274 275 276 276 276 277 277 277 277 276 277 276 279 279 279 280 281 282 281 280 281 283 284 284 284 284 286 287 288 288 289 289 289 290 292 293 294 295 296 296 297 298 298 299 299 299 300
271 271 271 271 271 271 271 271 271 271 271 271 271 271 271 271 272 273 273 273 273 274 274 274 274 274 274 273 273 273 273 273 273 273 273 273 274 274 275 275 276 276 276 276 277 276 276 276 276 277 277 278 278 277 280 282 281 281 280 280 280 282 284 283 283 285 287 287 289 289 289 290 290 290 291 292 294 295 296 296 297 298 298 298 299
270 270 270 269 270 270 270 269 270 270 269 270 270 270 270 271 273 273 273 273 273 273 273 273 273 273 273 273 273 273 273 273 273 274 274 274 274 274 275 275 275 275 275 275 275 275 274 274 274 274 276 277 278 279 280 280 279 280 281 280 278 279 281 283 283 283 284 285 285 287 288 289 289 290 291 292 292 293 293 294 295 295 295 297 299
269 269 269 269 268 268 268 268 268 268 268 268 269 269 271 273 274 273 273 273 273 273 273 273 273 273 273 273 273 273 273 274 275 275 275 275 274 272 273 274 274 274 273 274 274 274 274 274 274 275 275 275 275 276 276 277 277 277 280 280 279 280 281 281 282 284 284 283 284 285 286 288 287 287 288 288 289 290 291 292 292 292 294 297 299
267 267 267 268 267 267 267 267 267 267 267 268 269 272 275 274 274 274 273 273 273 273 272 272 272 272 272 272 273 274 274 274 274 274 274 275 275 274 273 273 273 272 272 271 271 272 272 272 272 273 273 273 274 275 276 277 278 278 278 278 278 279 280 280 281 282 284 284 283 283 285 287 286 286 287 286 288 288 289 289 290 291 292 294 296
266 266 266 266 266 266 266 266 265 266 266 267 270 273 274 275 274 274 273 273 273 272 272 271 271 271 272 272 272 272 272 272 271 272 273 274 275 275 275 275 275 273 271 271 271 272 271 271 272 272 271 271 273 274 274 275 277 278 278 279 278 279 278 277 276 280 285 284 283 282 283 286 286 284 285 286 287 287 288 288 289 290 291 292 294
265 265 265 265 265 265 265 265 265 265 265 267 271 272 274 275 275 274 274 273 272 272 271 271 271 270 270 270 270 270 270 270 270 270 271 273 273 274 274 274 275 275 276 273 271 271 271 271 271 271 272 272 273 274 274 275 275 275 276 276 275 275 275 275 276 277 282 285 282 281 281 285 286 285 285 286 287 287 287 288 289 290 291 292 293
264 264 264 264 264 264 264 263 263 264 264 267 270 272 273 275 275 275 273 273 272 271 271 270 270 269 269 269 268 269 269 271 270 270 269 269 271 272 273 273 273 274 274 275 275 273 272 271 270 270 271 271 271 272 274 274 275 273 273 273 274 274 275 275 275 276 278 282 281 279 279 282 284 284 283 285 287 288 287 288 289 290 291 292 292
263 263 263 263 263 263 263 263 263 263 263 266 270 272 273 274 275 275 273 272 271 270 269 269 269 269 268 268 268 268 269 269 269 269 269 269 269 270 270 270 271 272 274 275 275 275 274 272 271 270 271 272 271 273 274 275 273 272 272 272 274 274 274 274 276 277 279 281 279 278 277 279 281 282 282 283 286 287 287 288 289 290 291 292 292
262 262 262 261 261 261 261 262 262 262 262 267 270 271 272 273 275 275 272 270 269 269 269 269 269 269 269 269 268 268 268 268 269 270 270 270 270 270 270 270 271 271 272 272 272 272 273 273 273 272 273 274 274 274 275 276 275 275 275 274 275 275 275 276 277 278 278 280 279 278 274 278 281 280 281 282 284 285 286 288 289 289 290 291 292
261 262 261 261 261 260 261 261 260 261 262 267 269 270 272 273 274 272 270 269 268 268 268 269 269 269 269 269 269 268 268 269 271 273 273 271 271 270 270 270 271 272 272 274 276 277 275 275 275 274 275 275 277 277 277 277 277 278 278 278 277 276 275 273 272 275 275 279 281 279 276 277 280 280 281 283 284 283 285 286 287 289 290 291 291
261 260 260 260 260 260 260 260 260 260 261 264 268 270 271 273 272 270 270 269 268 268 268 269 269 269 269 269 269 269 269 269 272 274 275 275 272 271 271 271 271 271 271 273 276 278 279 279 279 280 280 281 281 281 281 281 279 279 277 275 273 274 272 270 271 272 273 276 277 279 278 277 280 280 280 282 283 283 284 284 286 288 289 290 291
259 259 259 259 259 259 259 259 259 259 260 263 267 269 271 272 272 270 269 268 268 268 268 269 269 269 270 271 271 271 270 270 273 275 276 275 273 272 272 272 272 272 272 274 275 275 278 279 279 279 280 280 280 281 281 281 280 279 275 272 273 273 271 271 270 271 273 274 275 277 274 274 278 280 280 281 283 283 283 284 285 286 288 289 290
258 258 258 258 258 258 258 259 261 261 260 262 266 268 270 271 271 270 270 269 268 268 268 268 269 270 270 271 272 273 272 273 276 277 277 276 273 273 273 272 271 271 273 274 273 273 274 274 274 275 275 276 276 276 276 279 279 278 276 275 275 273 271 271 271 271 270 271 275 277 273 274 275 277 278 278 277 281 284 284 284 285 286 286 287
Wind_Speed
8 8 4 3 3 4 3 3 3 3 2 1 0 2 1 2 3 3 3 4 2 2 1 1 1 1 1 1 1 1 1 1 1 1 1 1 1 3 7 8 10 11 12 13 13 12 10 8 7 6 6 8 6 5 5 3 4 6 6 7 7 6 5 6 6 3 5 5 5 5 8 6 6 4 7 6 8 9 10 10 10 9 11 10 8
5 4 7 5 3 3 4 3 3 2 4 3 3 3 4 3 3 3 3 2 2 1 1 1 1 1 1 1 1 1 0 0 0 1 1 1 2 2 4 7 9 10 10 11 12 12 12 10 9 8 8 7 8 6 6 3 5 8 5 2 3 6 7 3 5 2 3 6 6 6 6 4 3 4 4 5 7 8 9 9 10 10 9 9 11
6 6 4 4 3 1 0 2 3 3 3 4 3 1 2 0 2 4 5 4 2 1 1 1 0 1 1 1 1 0 1 0 0 0 0 0 1 1 2 5 7 8 9 10 11 12 12 13 13 13 12 12 7 9 9 5 3 8 9 5 2 7 5 4 5 8 2 3 5 4 5 2 3 1 5 5 5 6 7 7 8 8 8 8 8
2 1 1 4 4 3 2 3 2 1 2 3 2 2 1 1 2 2 2 2 2 1 1 1 1 0 0 0 0 1 1 0 1 1 1 1 0 0 1 2 4 6 7 9 10 11 12 13 13 13 13 11 10 9 10 7 6 8 7 2 4 11 11 11 8 3 2 5 5 4 5 5 6 5 5 2 4 5 6 6 6 6 6 6 6
5 3 3 2 1 2 1 4 5 1 2 3 3 3 3 2 3 3 3 2 2 2 1 1 2 0 0 1 0 0 1 1 1 1 1 1 1 1 1 1 1 2 3 6 8 9 11 12 13 14 13 13 13 11 11 11 11 12 7 6 8 9 9 9 8 6 4 4 5 5 5 6 5 4 4 5 6 7 7 6 7 7 5 7 6
6 6 6 6 6 7 6 5 5 5 4 4 3 3 2 2 3 2 2 1 0 1 1 2 3 2 3 3 2 1 1 1 1 1 1 1 1 1 1 1 1 2 2 2 4 6 8 10 12 13 14 14 14 14 13 12 12 12 13 9 11 11 10 10 7 7 11 9 6 5 5 6 4 4 7 6 6 7 8 7 5 8 6 8 7
6 6 7 6 5 6 6 4 3 5 4 4 4 3 4 5 3 3 2 3 3 3 3 2 3 3 3 3 3 3 2 2 2 2 1 1 1 1 1 1 1 2 2 2 1 2 5 8 10 11 12 13 14 15 15 14 13 13 13 13 15 12 11 10 11 12 4 3 5 4 5 5 3 5 7 8 8 6 7 8 7 8 8 8 8
8 7 6 6 6 6 5 4 4 4 5 4 5 5 4 4 3 4 3 3 3 3 2 2 1 2 2 1 2 2 3 3 3 3 2 1 2 2 2 2 2 2 2 2 1 2 3 5 7 9 10 12 13 14 14 14 14 13 13 13 14 15 12 12 8 12 1 3 4 3 4 6 6 5 7 8 8 8 6 8 9 8 9 10 9
11 10 9 9 7 7 7 6 5 6 5 5 4 3 4 4 4 4 3 2 3 2 1 2 2 2 2 2 2 1 2 2 2 3 2 3 2 2 2 3 2 3 2 1 1 1 1 4 5 6 7 8 11 12 13 13 14 14 14 14 14 14 15 17 12 3 1 3 2 4 5 7 8 9 8 7 7 9 10 9 9 10 10 10 10
11 9 10 9 8 8 8 8 6 6 6 6 6 5 5 3 4 4 3 2 3 3 2 2 2 3 2 2 3 2 3 3 3 3 2 4 2 3 3 2 2 2 2 2 2 2 2 2 4 5 3 6 8 10 11 13 14 14 15 15 15 15 15 17 2 4 6 6 6 6 9 8 6 6 7 9 10 10 10 8 10 11 11 11 10
11 11 9 8 8 8 9 8 7 6 6 6 5 6 6 4 3 2 2 3 3 2 1 2 4 3 3 3 3 4 3 3 2 2 2 2 3 3 2 2 2 2 3 2 2 2 2 2 2 2 3 5 8 9 10 11 11 13 15 15 15 15 15 16 16 11 7 8 8 9 4 5 6 7 10 12 12 11 11 10 10 11 11 10 10
9 8 8 8 7 8 8 7 7 6 7 8 7 6 4 2 3 3 5 4 3 1 1 2 3 4 4 3 3 4 4 2 3 3 3 2 3 2 3 2 2 2 2 3 2 2 2 3 3 3 3 4 6 7 8 8 9 11 13 14 15 15 15 16 16 19 7 11 13 11 11 9 8 8 8 12 13 11 11 11 11 12 11 11 10
9 8 8 8 8 8 9 8 7 8 8 8 7 7 5 4 3 4 5 4 4 3 3 3 4 3 1 3 4 1 3 3 2 2 2 2 2 3 2 3 3 2 2 2 2 2 3 3 3 3 3 3 4 5 7 8 7 10 11 12 14 16 16 17 17 17 17 13 13 15 12 12 11 9 10 10 10 9 11 12 12 13 12 12 11
9 9 10 10 10 9 10 9 8 8 8 8 8 7 8 8 5 4 4 4 4 5 4 4 3 5 6 6 2 3 2 2 3 2 2 2 2 2 2 3 4 2 2 2 2 3 3 3 3 3 3 3 4 4 3 4 5 7 10 12 13 14 16 16 17 18 18 17 11 13 15 14 14 13 9 10 10 10 10 12 13 13 12 12 13
11 10 9 10 10 10 9 8 10 8 8 9 9 11 9 9 8 6 4 3 2 3 5 6 4 5 3 3 3 6 2 2 1 5 7 2 2 2 1 3 3 2 3 3 3 3 3 3 4 4 4 4 4 4 4 6 6 7 9 11 11 14 16 16 17 18 18 19 11 14 16 16 16 13 11 12 11 11 11 12 14 14 13 13 13
11 11 10 10 10 9 8 9 9 9 8 9 10 10 10 9 9 8 5 6 6 6 5 5 4 6 5 4 4 2 6 3 7 8 5 3 2 2 1 3 3 3 2 3 4 4 4 3 4 4 4 5 4 5 5 5 8 9 9 10 10 13 15 16 17 17 17 18 19 15 16 17 16 16 14 13 14 13 12 13 14 14 14 14 13
11 12 11 11 11 10 9 9 9 9 8 9 9 8 8 8 8 8 9 5 6 5 7 6 7 5 3 3 3 2 3 8 12 6 2 5 6 5 3 3 3 3 3 4 4 4 4 4 4 4 5 5 5 5 5 6 6 6 8 9 10 11 13 16 18 18 18 18 18 20 18 16 18 20 14 14 15 14 11 12 13 14 15 15 15
11 11 12 11 11 11 10 10 10 9 9 8 7 8 10 10 9 7 9 8 4 6 6 7 5 8 6 3 1 2 6 7 6 7 4 5 3 2 4 5 3 4 3 4 5 5 3 4 4 5 5 5 5 5 5 5 5 5 5 7 10 12 13 15 17 18 19 18 19 19 20 20 19 17 11 15 16 15 13 15 16 14 14 16 16
11 11 11 11 10 10 10 10 9 9 8 9 9 9 8 8 7 8 7 7 7 7 7 6 3 7 7 5 4 1 1 3 4 6 11 2 2 4 7 4 5 5 6 6 6 5 4 4 5 5 5 5 5 5 5 6 8 7 10 13 14 13 14 15 15 17 18 19 19 20 21 21 21 20 17 17 18 18 17 17 17 15 13 15 17
10 11 10 10 10 10 10 10 10 10 8 9 8 7 7 7 8 7 7 7 7 7 6 6 6 5 6 6 5 5 3 2 2 3 5 10 11 1 3 4 6 6 6 6 6 5 6 5 5 5 5 5 5 5 5 6 6 6 6 11 14 15 15 15 16 16 17 18 19 20 21 22 22 22 22 21 22 20 24 17 17 16 15 15 16
10 10 10 10 10 9 9 10 10 9 8 8 8 8 10 9 10 10 9 8 7 6 6 6 6 6 6 7 5 6 5 2 2 4 4 8 10 9 12 6 4 3 3 3 4 4 5 6 6 6 6 6 6 5 5 5 6 6 6 12 14 15 16 17 17 16 17 17 18 19 20 21 23 23 23 23 23 21 18 17 18 18 17 15 15
9 10 10 10 10 9 9 10 9 8 8 8 8 9 9 8 8 8 8 8 7 8 7 5 5 5 6 4 5 6 4 5 4 7 4 2 7 12 10 14 14 5 7 7 7 6 5 5 6 6 6 6 6 5 5 5 6 5 7 11 14 15 15 17 17 17 18 18 18 18 19 20 21 22 23 24 24 22 21 21 22 21 18 17 18
7 8 9 8 8 9 8 8 7 8 8 9 8 7 7 7 6 8 10 9 7 7 7 6 5 5 6 5 5 5 4 3 5 5 4 4 7 7 9 10 10 14 4 6 7 7 7 6 6 6 7 6 6 5 5 5 7 8 12 13 15 15 15 16 17 18 18 19 19 20 20 19 19 20 21 22 23 24 23 22 24 22 20 20 18
6 7 8 8 7 7 7 8 8 7 8 6 7 7 6 6 7 7 6 6 6 6 6 8 8 5 5 5 4 4 4 4 4 5 4 5 5 8 8 9 9 6 6 8 7 7 4 5 6 6 6 6 6 6 6 6 7 11 9 11 12 14 16 17 18 18 18 18 19 20 20 20 20 19 19 20 21 23 24 24 23 25 23 21 19
7 7 7 8 6 7 8 7 7 7 6 6 6 6 6 6 6 6 7 8 6 6 6 6 6 6 6 4 3 4 4 4 4 4 5 5 4 7 7 6 9 12 8 6 6 3 6 7 5 5 5 5 5 5 5 5 5 8 9 8 10 12 14 16 17 18 19 19 20 21 21 20 20 20 20 20 21 22 24 24 24 24 25 25 22
6 6 4 4 6 5 5 5 5 5 6 6 6 6 5 5 6 6 6 5 5 6 5 5 4 5 5 6 5 5 5 5 5 5 5 6 6 6 9 7 7 10 8 6 4 7 2 3 4 4 4 5 6 5 5 5 5 9 9 7 8 11 13 15 16 17 18 19 19 20 20 20 21 21 21 21 21 21 22 23 24 25 26 26 26
5 3 4 5 5 5 6 6 6 6 6 6 5 5 5 4 5 5 5 5 6 5 5 6 6 7 7 6 6 5 5 5 5 5 5 5 6 6 7 11 9 5 9 7 10 7 10 5 6 6 6 6 5 4 5 4 6 10 9 6 6 9 11 14 15 17 18 18 19 19 19 20 20 22 22 22 22 22 21 22 23 24 26 27 27
4 4 4 4 5 6 5 6 5 6 6 6 6 5 5 5 5 5 5 3 5 6 5 5 6 6 6 6 5 6 6 5 5 6 5 5 6 5 5 5 7 12 9 10 7 9 4 8 3 6 6 5 4 4 4 5 5 10 9 5 5 7 9 13 16 17 18 18 18 18 19 19 20 21 21 22 23 23 22 22 21 21 21 22 22
3 3 4 4 4 5 5 5 5 5 5 5 5 5 4 4 5 5 6 5 5 6 5 5 5 5 5 6 6 6 6 6 5 5 6 6 5 5 4 5 6 8 9 9 10 10 5 1 9 2 3 4 4 3 4 4 6 8 7 7 7 7 9 14 16 18 18 19 19 20 19 20 20 20 20 22 22 23 23 22 21 21 21 22 22
3 3 3 4 4 4 5 4 4 4 5 4 4 4 4 4 4 5 5 5 5 4 4 4 5 4 5 5 5 5 6 6 6 6 6 6 6 6 5 5 5 7 9 11 14 8 11 10 7 9 1 5 5 7 6 9 13 13 8 8 8 9 11 14 16 18 18 19 20 19 20 20 20 20 20 21 22 23 24 24 23 23 22 22 24
3 4 4 5 5 5 5 5 5 6 5 5 5 5 5 5 5 5 5 5 5 5 4 5 5 5 6 6 6 5 6 7 7 6 6 5 6 6 6 6 6 7 9 10 13 8 3 9 10 6 10 10 10 11 8 8 10 12 10 9 8 12 15 12 14 16 17 19 19 19 20 21 21 22 22 22 22 23 23 24 24 23 23 22 21
5 5 5 5 5 6 5 5 5 5 6 6 6 6 6 5 6 6 6 6 6 6 6 4 4 5 6 7 6 6 7 7 7 6 6 6 6 7 7 7 7 7 7 10 12 18 11 9 14 14 13 14 12 12 13 8 8 11 9 9 9 12 9 8 13 15 16 17 18 19 20 20 21 22 22 23 23 24 24 24 24 25 24 22 21
4 5 5 5 5 5 6 6 6 7 7 7 6 6 6 6 6 6 6 6 7 7 7 7 6 6 7 8 8 7 7 8 7 7 7 8 7 7 7 7 8 7 7 9 12 16 14 8 10 12 11 12 16 11 14 13 10 8 9 9 9 8 8 7 8 13 14 16 18 19 20 21 21 22 22 22 23 24 24 24 24 23 23 24 22
4 4 4 3 3 4 4 5 5 5 5 5 6 5 6 6 6 5 6 7 7 7 7 8 8 7 8 9 9 9 8 9 9 9 8 9 9 9 8 7 8 9 6 9 11 12 18 13 11 11 11 8 15 14 11 14 14 10 11 11 9 10 9 9 8 8 14 16 17 19 20 21 22 22 22 22 22 22 23 24 23 22 23 24 22
3 3 3 3 3 3 3 4 4 4 5 5 5 5 6 6 7 6 6 7 7 8 8 8 8 8 9 9 10 9 8 10 10 9 9 10 9 10 11 9 10 10 9 9 11 14 16 16 13 14 12 9 11 15 14 11 15 12 13 13 11 10 9 10 9 7 9 16 19 20 21 21 21 22 22 23 23 23 23 23 23 22 22 22 22
3 3 2 2 2 3 3 3 4 4 4 5 5 5 6 6 6 7 7 7 7 7 8 9 9 9 9 10 9 10 10 11 10 10 9 9 9 10 11 11 10 11 11 10 11 12 14 16 15 13 12 13 11 13 12 12 14 15 13 14 12 10 11 10 11 10 9 16 19 20 21 21 22 22 22 23 23 23 23 24 23 22 22 22 22
2 2 2 2 2 3 3 4 4 4 5 5 5 5 5 5 6 7 7 7 7 8 8 8 8 9 9 9 10 10 10 11 11 9 9 12 10 10 11 11 11 11 10 10 11 12 14 16 17 14 13 14 12 13 13 13 13 14 14 14 12 11 11 10 9 9 13 17 19 20 19 20 22 22 23 23 23 23 23 24 24 23 22 22 22
2 2 2 3 3 3 3 3 4 4 4 5 5 6 6 6 6 7 7 7 8 8 8 8 8 8 9 10 10 10 10 10 11 11 11 12 12 11 12 12 11 12 13 13 12 12 13 15 15 17 14 14 13 12 12 12 12 15 15 13 11 10 9 10 9 7 6 7 7 7 11 15 19 22 23 22 23 24 24 24 24 24 22 21 21
2 1 2 2 2 3 3 3 4 4 5 5 5 6 6 6 7 7 7 8 8 7 7 8 8 8 9 9 9 9 10 10 11 11 12 13 11 13 12 12 12 12 12 12 12 13 13 14 15 14 15 14 13 15 12 12 14 13 15 15 15 11 10 10 11 7 5 8 10 14 14 13 13 13 16 20 23 24 24 23 23 24 22 22 21
2 2 2 3 2 3 3 3 4 4 4 5 5 5 6 6 7 7 7 9 9 8 9 8 8 8 8 9 9 9 9 9 10 11 12 11 11 13 12 11 12 13 13 13 13 12 13 14 15 15 13 14 13 11 12 12 13 13 11 12 16 16 13 10 10 12 10 9 10 8 9 12 14 17 21 22 24 24 23 22 22 22 22 22 21
2 2 3 3 3 3 3 3 4 4 4 4 4 5 7 8 9 9 9 9 10 11 10 9 9 8 8 8 8 8 10 13 17 16 16 15 13 13 13 12 12 13 12 12 12 12 12 13 15 13 14 14 13 13 13 11 11 13 14 12 15 16 16 16 14 11 11 11 11 11 9 8 10 9 8 10 11 16 17 20 18 21 21 20 21
2 2 2 2 2 3 3 3 3 3 4 3 7 12 11 9 10 8 9 9 9 10 10 10 10 10 10 10 9 14 16 16 17 19 19 20 20 16 14 13 12 12 12 13 13 12 13 14 14 14 14 14 13 12 13 13 13 14 15 14 15 16 16 15 16 13 9 8 10 12 10 7 9 10 8 9 9 9 9 10 10 13 15 21 23
1 2 2 2 3 3 3 3 4 3 4 5 12 13 13 14 10 9 9 10 10 10 10 10 11 11 10 11 11 12 13 14 13 17 19 20 19 19 21 20 17 14 12 13 13 12 12 13 14 15 15 17 17 14 14 13 12 12 11 12 12 14 15 15 17 16 7 7 9 10 10 6 7 10 9 9 9 8 9 11 14 17 18 21 23
1 1 2 2 2 2 3 3 3 4 5 9 13 13 13 13 12 10 9 9 9 9 9 10 10 10 11 11 11 10 10 12 13 14 16 19 20 20 20 20 19 19 19 14 13 13 12 13 14 14 14 14 15 13 12 12 12 13 13 13 13 14 15 15 14 15 10 8 10 13 15 11 6 9 11 8 9 7 8 13 17 19 20 21 22
1 1 1 2 2 2 3 4 4 5 5 10 13 14 13 14 14 12 8 8 9 9 9 10 10 10 10 11 11 10 10 16 13 13 14 14 17 20 19 19 18 18 17 19 19 15 14 14 15 16 14 14 16 13 13 14 14 16 15 14 14 14 15 16 15 16 16 12 14 16 17 14 11 9 14 11 10 7 8 14 20 20 21 22 23
1 1 1 2 2 3 4 4 5 5 7 10 14 14 14 14 14 13 9 9 9 9 10 10 9 10 11 11 12 12 12 13 13 14 14 14 14 14 13 13 13 16 19 22 23 24 21 17 17 18 16 14 16 15 15 15 15 15 14 15 15 15 16 18 20 20 19 13 13 15 19 18 12 14 16 16 12 9 8 11 17 20 22 23 23
2 2 2 3 3 3 4 4 5 5 6 13 14 15 14 15 15 13 7 8 8 8 9 9 10 10 11 11 12 13 14 13 12 15 16 16 15 13 13 13 13 14 15 15 15 15 14 14 17 18 18 17 17 17 14 13 14 15 15 16 15 15 16 17 18 18 19 16 15 13 18 20 13 12 16 16 13 12 10 12 17 20 22 23 24
1 1 2 2 3 4 4 5 5 6 6 13 14 14 15 15 16 9 7 8 8 9 9 10 10 10 10 11 12 14 14 15 18 24 21 17 15 15 15 14 14 15 14 15 22 22 20 17 16 16 16 17 20 18 17 14 12 11 11 11 9 9 13 15 16 13 13 12 10 12 15 19 16 14 16 15 13 15 12 10 14 21 22 24 24
2 2 2 3 3 4 4 4 6 6 7 10 14 15 16 17 13 8 8 7 8 10 11 11 10 10 10 11 12 13 15 16 20 25 25 24 17 16 15 16 14 11 12 12 20 26 27 29 30 30 30 30 30 30 28 28 21 16 13 14 14 12 15 16 15 13 14 11 9 10 14 19 18 14 15 15 15 15 13 12 9 15 22 24 25
3 2 3 3 2 3 4 5 4 7 6 10 15 16 16 16 14 10 8 9 8 9 11 10 10 11 13 20 18 16 18 18 22 25 26 23 16 15 15 15 16 14 14 13 10 13 25 30 31 31 30 30 30 30 29 27 26 21 15 18 15 14 18 16 17 14 14 13 11 8 12 18 17 13 13 15 15 14 12 12 13 13 18 20 26
3 2 3 3 3 2 3 4 8 9 8 9 14 16 17 16 12 9 8 7 8 11 10 12 12 12 13 13 20 19 18 21 28 27 29 24 16 15 16 16 16 15 15 16 12 14 11 10 12 15 17 21 21 18 18 25 27 24 19 18 14 14 17 17 16 16 18 15 5 6 11 15 14 15 13 14 16 13 10 10 11 11 9 9 10
Wind_Direction
202 193 164 173 151 154 152 183 149 140 109 23 216 215 146 153 147 140 145 135 131 135 123 96 87 51 45 68 41 56 52 32 13 351 347 345 349 354 352 355 352 346 341 337 330 325 321 309 285 288 290 297 301 297 267 301 278 296 291 295 51 57 343 329 340 342 328 340 336 333 325 326 4 14 10 18 30 21 21 19 17 25 25 32 31
204 185 175 186 150 171 186 189 148 141 144 178 192 226 194 157 132 134 119 108 142 132 148 133 96 62 35 39 40 11 36 23 14 1 347 342 347 342 359 355 350 344 342 337 335 332 329 325 311 297 296 278 293 268 293 299 283 266 280 6 92 14 302 351 333 5 323 311 315 322 311 345 41 16 12 31 29 18 22 18 9 16 27 26 35
180 180 166 162 182 183 72 177 148 178 172 183 164 159 336 37 139 153 163 160 147 125 151 159 137 114 57 8 33 357 27 350 281 248 244 357 342 349 345 350 344 342 340 339 336 335 334 331 332 334 332 324 273 286 297 288 279 275 274 251 103 255 273 163 207 176 258 324 318 315 301 305 151 354 338 349 356 353 0 1 359 360 4 6 14
118 162 145 138 150 155 101 192 162 159 169 113 88 59 112 32 99 87 89 100 116 133 130 189 201 152 131 72 86 359 1 346 321 320 311 295 276 251 315 333 335 340 343 341 337 337 335 335 335 335 333 330 322 306 299 296 245 250 282 149 264 277 318 327 323 83 335 313 302 286 273 285 291 294 303 9 345 328 330 335 345 338 346 338 348
13 52 66 28 74 104 81 38 36 46 37 55 87 93 93 130 94 75 77 105 143 154 147 179 215 192 21 54 10 295 349 314 311 287 292 294 324 328 321 321 313 328 334 337 341 339 336 333 335 335 336 337 334 329 318 318 316 323 284 239 256 268 291 287 263 215 196 241 261 287 287 282 290 312 332 326 313 308 303 309 309 307 320 350 325
54 52 41 41 42 39 37 38 31 40 43 49 59 44 31 346 18 30 35 15 5 22 354 358 9 14 348 355 324 332 328 298 291 296 303 307 337 321 308 310 312 312 311 321 340 337 339 335 334 335 336 338 338 334 330 323 316 314 318 294 264 260 272 275 261 233 193 212 229 240 271 287 288 282 278 286 293 303 306 306 319 321 297 318 322
41 65 66 73 65 56 50 47 63 67 65 56 65 57 41 42 27 32 62 33 19 42 24 8 351 351 343 340 331 329 312 310 313 300 297 308 310 281 268 276 275 284 290 299 313 331 337 338 335 334 335 337 337 334 329 325 319 316 311 313 318 305 277 266 272 267 252 194 208 228 264 279 281 278 277 283 293 299 305 297 296 305 301 299 311
31 40 61 55 60 55 46 36 52 72 74 70 70 61 64 76 57 43 29 44 37 39 47 18 1 317 308 300 303 306 309 308 312 307 307 293 274 267 257 255 249 249 268 276 287 311 318 328 331 333 338 336 334 331 329 325 323 320 317 316 314 314 299 296 272 264 164 203 206 235 270 267 257 265 279 288 302 301 287 290 293 292 289 289 293
32 37 51 40 39 51 42 37 49 66 63 64 67 76 80 82 64 72 101 96 74 52 31 14 332 290 275 276 246 251 253 255 259 272 278 269 268 261 270 258 252 260 258 276 288 297 287 313 329 337 339 334 330 327 328 327 327 327 326 323 320 312 308 314 283 267 214 187 199 223 249 256 275 279 286 288 274 279 290 291 294 293 293 292 284
36 32 47 46 40 38 46 30 35 52 58 52 52 46 51 42 73 39 17 25 41 20 14 347 303 295 294 286 282 261 259 241 216 223 245 270 265 277 275 291 290 283 300 305 307 302 307 318 326 323 315 324 321 319 320 322 325 325 323 320 320 317 316 318 271 230 218 186 220 231 237 264 287 285 301 299 296 294 291 293 285 286 286 286 283
33 32 41 38 40 37 46 34 27 40 53 51 41 41 42 16 60 93 76 77 110 102 336 293 287 283 294 288 274 257 259 259 261 251 248 266 296 284 278 280 297 315 318 310 292 293 299 308 308 303 301 308 311 311 311 312 317 317 317 316 316 315 315 315 317 271 214 218 221 227 177 184 225 250 263 280 284 283 281 283 284 282 281 280 279
33 25 42 41 44 40 45 37 37 41 47 45 34 33 23 2 12 35 55 53 52 35 311 311 290 288 298 286 247 266 262 280 279 283 331 311 287 288 280 304 295 298 292 289 300 309 313 306 296 290 292 284 286 293 299 305 309 308 306 308 309 312 312 315 314 320 244 226 233 175 182 185 197 226 256 274 280 279 279 280 285 279 276 274 270
39 42 43 50 51 49 48 42 45 54 55 54 43 36 22 18 25 22 24 38 31 5 2 337 336 337 310 286 304 287 284 275 304 345 305 297 279 281 324 313 284 291 308 311 316 312 290 282 278 275 272 284 279 272 284 290 295 298 299 300 302 303 307 307 312 311 312 257 230 175 185 189 210 225 232 267 279 279 277 276 277 278 274 272 271
37 41 43 41 44 42 40 36 32 46 57 54 51 46 35 35 27 50 39 37 44 355 351 325 40 354 326 328 307 314 287 33 10 359 337 279 310 327 313 294 301 338 323 300 281 270 272 274 278 280 282 283 282 294 290 284 281 291 298 298 298 297 296 300 302 307 308 318 204 192 190 201 209 216 251 270 255 250 250 266 266 269 271 271 273
33 36 42 40 45 47 41 37 37 30 41 42 36 37 28 29 29 37 36 54 68 27 11 24 360 321 262 288 352 338 9 44 16 341 318 354 344 302 308 292 319 338 320 304 293 290 285 290 285 287 292 287 291 290 286 282 281 286 284 290 292 293 292 292 292 294 301 307 273 224 204 209 218 230 211 226 229 245 255 250 258 258 262 271 271
35 34 39 40 42 46 44 41 38 33 36 41 36 33 26 24 22 28 23 36 22 21 23 7 18 351 12 357 313 344 326 55 344 308 311 319 329 330 339 330 327 327 319 307 315 317 308 301 289 288 282 283 285 285 279 279 286 278 271 275 278 279 287 287 286 284 287 292 295 284 247 228 226 232 234 225 223 238 238 257 265 265 261 255 266
39 39 39 39 37 37 42 43 44 35 37 40 39 33 30 29 21 29 31 26 31 20 15 7 14 28 15 351 343 347 4 328 333 323 40 3 316 337 344 341 341 344 342 319 316 303 305 299 293 286 278 278 276 272 273 279 279 278 278 267 264 272 275 282 283 284 281 278 282 289 285 268 250 240 238 217 220 229 228 241 253 263 266 268 265
40 38 39 40 39 35 35 39 39 39 38 43 37 32 29 28 21 26 29 21 38 40 19 8 33 31 27 69 134 307 326 325 340 316 315 275 297 330 358 339 8 348 337 321 313 311 306 298 295 288 287 283 278 276 272 272 267 273 270 272 265 263 265 270 275 280 282 278 274 274 282 288 282 283 224 230 228 229 229 224 237 241 251 262 267
42 40 39 40 42 38 37 38 39 38 33 39 39 33 31 29 18 33 31 24 24 53 36 2 354 28 11 21 21 6 260 324 329 313 321 0 132 346 329 339 9 352 328 311 302 301 292 289 289 285 286 282 277 275 275 271 273 262 265 272 274 268 264 264 266 272 276 279 279 275 273 274 279 280 263 249 249 236 228 232 231 236 235 249 255
44 42 40 40 41 42 37 38 39 34 32 38 36 26 30 28 31 31 36 35 31 43 36 25 32 8 359 13 10 6 356 234 241 304 294 307 317 289 160 350 327 313 290 298 302 296 299 294 288 288 283 278 273 275 272 276 275 273 270 267 273 271 270 268 266 264 266 271 274 276 274 270 269 271 274 264 254 260 268 233 230 236 235 251 252
45 44 40 40 40 42 39 40 39 34 33 35 33 32 32 29 23 25 25 27 27 21 38 27 22 19 358 9 2 7 345 27 55 26 334 316 308 334 320 309 267 279 302 287 275 283 285 289 290 288 280 278 275 268 270 273 273 271 271 270 273 276 274 274 272 268 266 265 267 270 271 273 271 269 268 268 268 269 263 229 233 238 244 240 242
43 40 41 39 41 40 43 42 39 36 36 35 31 31 29 33 31 33 30 35 27 28 35 21 23 19 24 357 15 355 7 10 11 354 328 263 299 319 319 325 328 340 329 309 309 299 286 283 285 278 282 282 277 276 271 268 268 273 270 270 276 277 277 278 278 276 273 271 268 264 266 270 273 274 271 269 267 265 259 241 237 237 240 243 246
46 45 42 37 42 42 43 43 41 37 35 30 29 28 25 29 29 34 37 33 23 20 28 31 26 25 21 20 15 14 3 347 332 338 330 308 311 306 313 309 307 313 335 314 307 292 284 285 279 282 280 278 284 283 277 273 277 267 270 277 282 285 284 281 278 276 273 273 271 268 266 266 268 270 271 273 271 266 262 250 242 241 237 241 240
52 49 41 35 39 43 43 45 42 36 37 30 27 25 24 27 32 33 31 30 26 26 22 20 12 11 20 13 9 2 356 347 331 321 317 309 301 291 299 306 300 267 300 308 289 282 284 269 263 272 278 286 282 284 285 284 279 280 283 285 286 288 288 285 284 282 279 276 273 272 270 268 267 265 265 268 269 269 264 260 247 241 242 239 237
43 48 39 33 38 41 38 39 39 39 37 36 30 25 25 31 33 34 33 30 22 16 27 21 12 11 351 348 353 356 354 342 330 324 319 309 297 299 291 307 296 304 307 317 307 266 244 263 267 254 267 272 279 278 282 288 292 297 293 287 284 288 286 287 286 285 283 280 280 279 278 275 271 267 266 265 265 267 267 261 258 251 242 241 235
53 50 35 37 47 52 53 53 51 44 42 40 37 32 26 33 32 32 30 28 16 21 22 13 14 10 352 346 355 350 342 344 334 334 333 330 321 317 312 303 284 292 299 308 293 322 264 227 252 263 262 261 265 276 281 287 287 292 298 300 290 282 283 283 284 283 282 280 280 278 277 277 275 272 269 266 265 266 267 267 261 257 255 240 233
58 54 38 46 49 45 44 46 38 37 36 37 36 34 32 30 34 31 25 27 14 16 14 11 4 360 356 354 337 337 341 341 338 333 334 322 314 316 321 319 312 274 297 290 300 265 272 265 255 247 251 262 262 265 271 279 295 295 304 301 290 284 277 278 279 280 280 281 279 278 277 275 273 273 271 268 266 266 267 269 267 261 258 251 239
70 60 43 48 48 45 42 43 36 34 32 32 26 26 20 22 23 24 24 16 12 13 8 1 358 350 346 337 336 332 334 333 334 326 324 320 314 310 310 299 305 308 310 302 292 286 285 293 271 228 245 251 261 264 298 305 297 306 302 289 289 291 272 275 278 280 280 277 276 273 272 271 271 270 269 268 267 266 265 266 269 270 267 263 248
77 72 60 55 57 54 45 42 36 30 30 29 23 21 14 15 18 11 14 12 9 5 356 358 346 340 343 342 333 326 326 325 321 320 318 315 309 304 300 292 298 291 303 298 292 297 310 94 314 271 234 277 296 328 318 294 292 294 294 293 288 283 275 279 278 279 278 277 275 272 269 267 267 267 266 265 266 265 264 263 264 263 265 267 268
86 77 73 62 56 52 45 40 36 30 29 21 22 11 9 14 13 13 359 354 355 354 354 348 339 336 331 328 325 321 318 320 318 315 314 310 307 306 301 292 280 275 283 290 290 279 286 290 255 280 331 322 316 301 302 294 298 294 279 281 283 283 281 279 281 282 280 279 278 275 272 270 267 265 264 263 262 262 263 263 264 263 260 259 259
70 56 48 45 40 32 34 25 22 22 17 14 10 8 7 7 5 2 358 358 352 347 345 344 331 333 326 322 318 310 313 309 307 309 304 305 307 305 297 290 275 267 274 281 287 277 223 292 290 278 300 300 300 294 286 281 282 289 286 278 273 281 285 283 279 279 278 278 276 273 272 270 268 267 267 265 263 261 259 260 260 261 261 257 253
50 45 41 36 28 24 20 18 12 14 10 6 6 4 0 7 356 353 350 349 345 341 335 336 330 326 320 319 317 318 316 310 306 304 303 301 297 297 297 292 286 272 270 274 268 278 283 279 283 289 293 298 299 297 294 280 274 272 277 279 281 280 277 276 281 278 277 274 273 272 271 269 267 266 265 264 263 263 260 257 257 257 258 255 250
40 38 35 28 20 16 9 9 9 1 1 356 356 354 352 348 346 339 337 340 336 331 329 325 327 324 321 315 313 312 310 309 309 311 309 306 301 293 287 285 280 276 270 271 274 282 286 272 272 284 293 303 297 291 295 297 290 280 272 275 283 282 276 269 272 274 270 271 272 270 268 267 266 265 263 261 260 260 260 257 253 252 253 252 250
45 35 34 22 15 8 5 359 358 353 349 347 343 345 341 336 334 334 329 331 324 320 321 317 323 323 317 313 312 314 314 307 309 311 310 310 308 302 296 292 286 285 270 274 276 277 286 293 286 282 287 284 286 291 292 299 297 298 287 279 274 271 277 276 271 266 265 268 267 267 265 265 265 265 264 262 260 259 258 257 252 247 247 248 248
34 44 25 24 11 3 2 355 352 349 346 343 340 337 330 329 326 324 324 322 319 317 317 314 316 315 313 310 310 312 314 311 308 306 306 303 303 300 297 293 291 286 282 270 274 279 283 286 288 288 286 283 276 289 294 290 290 290 289 283 275 271 264 270 271 268 257 263 266 266 267 267 265 264 263 262 260 259 258 256 254 249 243 241 242
51 30 35 23 16 5 3 359 350 345 345 339 336 330 324 323 318 316 316 313 308 306 305 307 312 312 310 310 308 314 313 307 304 305 302 299 298 297 293 291 288 287 285 280 270 275 282 286 285 283 286 288 280 280 285 287 288 290 282 284 280 268 267 260 264 271 264 264 264 264 266 267 267 265 263 261 260 257 257 256 254 252 246 241 237
49 53 27 20 21 10 7 359 351 353 347 338 331 325 320 316 312 311 310 308 305 304 303 303 305 306 307 305 307 311 310 305 303 302 302 300 297 293 289 290 286 284 282 279 277 274 277 278 284 283 284 281 279 280 281 286 290 286 285 279 280 281 278 264 253 257 266 268 266 266 263 263 264 265 264 263 261 259 257 255 254 253 250 244 239
55 34 33 15 15 8 357 360 352 347 340 331 323 318 316 317 312 307 306 305 305 304 303 303 304 305 302 302 303 305 305 303 302 304 302 298 296 289 287 286 285 282 281 280 277 275 272 275 280 288 285 285 290 281 281 283 286 290 290 289 288 283 280 279 254 236 238 251 264 259 257 258 258 261 264 264 262 260 258 255 254 252 251 248 242
51 25 21 28 2 13 354 7 351 348 336 325 319 317 315 311 308 308 307 305 303 302 299 300 300 298 298 299 300 301 298 297 297 297 299 297 294 291 290 290 289 288 286 285 283 281 278 280 282 280 286 286 282 287 286 281 281 278 287 298 297 287 276 275 285 276 230 247 248 259 267 265 257 255 258 260 260 258 257 256 256 253 251 248 243
40 27 11 7 360 8 4 358 348 342 330 319 314 311 306 305 308 308 309 310 309 306 303 301 301 299 299 297 295 293 292 291 291 295 299 298 299 296 294 293 291 289 286 286 286 284 284 283 280 284 283 288 293 290 296 293 284 281 280 286 290 297 296 291 287 292 286 270 261 251 254 263 263 257 256 258 259 258 257 257 255 253 251 250 246
23 19 5 356 2 4 357 350 344 334 323 311 314 309 314 318 321 317 315 312 311 311 312 309 309 305 301 299 296 295 294 295 296 295 295 295 296 295 294 295 296 295 293 290 289 288 285 283 284 283 286 287 289 296 295 291 288 291 297 292 287 286 291 296 290 274 271 280 275 259 245 245 261 253 244 248 247 254 258 254 256 253 250 249 248
12 9 358 357 10 351 347 338 339 328 312 306 301 309 316 317 317 313 310 308 309 309 309 310 309 309 307 304 299 300 299 298 299 298 297 294 290 287 291 296 297 296 294 294 292 291 291 288 286 290 289 288 294 298 300 301 305 302 295 289 285 289 291 287 287 283 276 261 265 270 253 226 246 260 255 253 252 245 255 254 246 248 247 246 245
2 5 351 0 357 341 340 331 328 323 307 296 307 315 316 316 313 308 305 305 305 304 302 303 305 308 306 305 303 304 301 297 295 294 296 294 293 293 292 291 290 290 294 293 290 290 287 282 283 284 283 286 288 289 289 296 297 298 304 313 312 307 299 296 294 296 288 281 274 272 274 235 227 254 257 255 253 245 239 247 249 249 249 248 246
353 355 343 358 333 335 324 326 318 313 301 302 310 312 312 310 310 306 303 301 301 298 298 298 301 303 304 304 302 302 299 297 297 298 295 295 295 295 294 293 291 289 288 291 296 297 294 294 291 291 294 293 296 298 301 302 300 302 304 307 306 303 300 299 298 294 305 319 305 294 286 287 248 238 252 241 256 247 233 245 247 251 250 248 247
298 326 331 332 320 326 322 319 318 308 294 302 307 310 310 311 309 307 300 297 297 297 297 298 299 300 301 301 300 296 295 296 296 296 296 295 294 292 292 291 291 290 289 288 288 288 292 290 289 290 289 296 293 293 294 298 306 300 300 295 295 296 296 294 289 291 285 299 299 297 291 285 287 261 265 254 246 244 245 242 245 246 249 249 248
302 298 305 311 321 322 319 314 307 303 296 297 307 310 311 309 308 307 300 301 297 296 296 294 295 295 296 297 299 298 297 297 294 293 293 292 290 291 288 287 287 286 284 281 280 279 278 279 281 281 282 279 281 289 291 293 292 289 286 283 281 279 277 276 281 280 285 292 288 296 291 283 273 277 273 274 269 253 235 241 244 243 244 246 247
316 315 321 316 308 308 305 305 303 298 289 304 310 311 309 308 308 311 306 302 294 290 290 289 290 291 294 295 294 294 295 293 290 288 290 289 289 283 276 269 266 266 269 269 270 268 262 267 271 271 271 269 272 277 279 276 272 271 271 270 273 275 277 277 275 274 279 279 275 271 273 281 275 267 265 270 272 266 251 250 245 244 241 242 245
267 287 292 293 298 303 302 301 301 296 293 308 311 309 308 309 311 310 301 295 295 294 290 291 288 289 290 293 294 292 289 289 288 289 286 286 285 279 275 269 266 265 258 255 261 266 269 267 263 263 266 266 268 273 275 276 275 275 271 274 279 285 290 289 285 291 285 296 286 267 270 276 277 273 275 273 272 270 264 249 238 242 242 240 240
295 288 283 287 291 291 294 296 298 295 294 303 307 308 308 310 312 299 294 293 293 294 290 291 289 286 285 281 282 284 285 280 282 287 287 287 284 277 274 272 271 264 261 248 255 266 273 272 273 275 277 278 280 283 285 286 286 286 287 285 284 287 283 284 284 285 282 284 282 291 288 280 277 277 277 274 269 267 265 259 233 229 238 241 240
286 276 289 288 273 274 284 292 289 294 290 302 307 308 308 308 307 303 297 286 271 279 292 289 287 281 274 272 273 281 282 281 282 285 287 289 286 284 281 277 277 272 272 267 257 259 265 269 270 272 274 277 279 281 284 285 284 284 281 278 278 279 274 274 279 283 285 280 282 284 283 276 291 292 290 284 278 264 251 251 249 244 237 239 241
265 276 284 288 277 266 258 274 297 299 292 297 304 304 306 306 308 302 297 284 282 294 295 293 283 277 277 271 273 274 285 289 290 292 293 294 289 280 279 276 274 266 270 274 264 269 262 255 256 256 262 263 265 264 263 264 270 271 268 267 270 266 270 271 273 282 285 279 282 274 271 277 278 272 270 276 273 270 240 236 239 239 218 219 231